• In Hungary
  • List of Countries
  • For 7 days
  • Water Temperature
  • Satellite Maps
  • Weather Map
  • News
  • Weather Widgets
  • user-avatar
    Login

    Hourly Weather Dzhuli

    Today, 16 July, Monday

    Time Temperature Precipitation Wind Pressure Humidity
    00:00 +19°C° 0 mm 2 mps 657 mmHg 69%
    01:00 +19°C° 0 mm 2 mps 657 mmHg 68%
    02:00 +19°C° 0 mm 2 mps 657 mmHg 67%
    03:00 +19°C° 0 mm 2 mps 658 mmHg 63%
    04:00 +20°C° 0 mm 2 mps 658 mmHg 64%
    05:00 +20°C° 0 mm 2 mps 658 mmHg 65%
    06:00 +21°C° 0 mm 2 mps 658 mmHg 66%
    07:00 +22°C° 0 mm 3 mps 659 mmHg 64%
    08:00 +24°C° 0 mm 3 mps 659 mmHg 63%
    09:00 +25°C° 0 mm 4 mps 659 mmHg 61%
    10:00 +25°C° 0.5 mm 4 mps 659 mmHg 63%
    11:00 +25°C° 0.5 mm 4 mps 659 mmHg 64%
    12:00 +25°C° 0.5 mm 4 mps 659 mmHg 66%
    13:00 +25°C° 1.2 mm 4 mps 659 mmHg 67%
    14:00 +24°C° 1.2 mm 3 mps 659 mmHg 69%
    15:00 +24°C° 1.2 mm 3 mps 659 mmHg 72%
    16:00 +22°C° 0.4 mm 3 mps 659 mmHg 73%
    17:00 +23°C° 0.4 mm 2 mps 659 mmHg 74%
    18:00 +21°C° 0.4 mm 2 mps 659 mmHg 76%
    19:00 +20°C° 0 mm 2 mps 659 mmHg 78%
    20:00 +19°C° 0 mm 2 mps 659 mmHg 81%
    21:00 +18°C° 0 mm 2 mps 659 mmHg 83%
    22:00 +17°C° 0 mm 2 mps 659 mmHg 80%
    23:00 +17°C° 0 mm 2 mps 659 mmHg 77%

    Tomorrow, 17 July, Tuesday

    Time Temperature Precipitation Wind Pressure Humidity
    00:00 +17°C° 0 mm 2 mps 659 mmHg 74%
    01:00 +17°C° 0 mm 2 mps 660 mmHg 72%
    02:00 +17°C° 0 mm 2 mps 660 mmHg 70%
    03:00 +17°C° 0 mm 2 mps 660 mmHg 68%
    04:00 +17°C° 0.2 mm 2 mps 660 mmHg 69%
    05:00 +18°C° 0.2 mm 2 mps 660 mmHg 69%
    06:00 +19°C° 0.2 mm 1 mps 661 mmHg 70%
    07:00 +20°C° 0 mm 2 mps 661 mmHg 65%
    08:00 +21°C° 0 mm 2 mps 661 mmHg 60%
    09:00 +24°C° 0 mm 2 mps 662 mmHg 54%
    10:00 +25°C° 0.1 mm 2 mps 662 mmHg 54%
    11:00 +25°C° 0.1 mm 3 mps 662 mmHg 53%
    12:00 +26°C° 0.1 mm 3 mps 662 mmHg 53%
    13:00 +26°C° 0.4 mm 3 mps 661 mmHg 55%
    14:00 +26°C° 0.4 mm 3 mps 661 mmHg 56%
    15:00 +26°C° 0.4 mm 3 mps 661 mmHg 58%
    16:00 +25°C° 0.5 mm 3 mps 661 mmHg 63%
    17:00 +24°C° 0.5 mm 3 mps 661 mmHg 67%
    18:00 +23°C° 0.5 mm 2 mps 660 mmHg 72%
    19:00 +21°C° 0.4 mm 2 mps 660 mmHg 76%
    20:00 +19°C° 0.4 mm 2 mps 660 mmHg 79%
    21:00 +19°C° 0.4 mm 1 mps 661 mmHg 83%
    22:00 +18°C° 0 mm 2 mps 660 mmHg 79%
    23:00 +18°C° 0 mm 2 mps 660 mmHg 76%

    Day after tomorrow, 18 July, Wednesday

    Time Temperature Precipitation Wind Pressure Humidity
    00:00 +18°C° 0 mm 2 mps 660 mmHg 73%
    01:00 +17°C° 0 mm 2 mps 660 mmHg 70%
    02:00 +17°C° 0 mm 2 mps 660 mmHg 67%
    03:00 +17°C° 0 mm 2 mps 660 mmHg 64%
    04:00 +18°C° 0 mm 2 mps 660 mmHg 62%
    05:00 +20°C° 0 mm 1 mps 661 mmHg 61%
    06:00 +21°C° 0 mm 1 mps 661 mmHg 60%
    07:00 +21°C° 0 mm 2 mps 661 mmHg 57%
    08:00 +24°C° 0 mm 2 mps 661 mmHg 54%
    09:00 +26°C° 0 mm 2 mps 662 mmHg 51%
    10:00 +26°C° 0 mm 3 mps 662 mmHg 51%
    11:00 +27°C° 0 mm 3 mps 662 mmHg 50%
    12:00 +28°C° 0 mm 4 mps 662 mmHg 50%
    13:00 +28°C° 0 mm 4 mps 661 mmHg 51%
    14:00 +28°C° 0 mm 4 mps 661 mmHg 53%
    15:00 +28°C° 0 mm 4 mps 661 mmHg 55%
    16:00 +27°C° 0 mm 3 mps 661 mmHg 58%
    17:00 +26°C° 0 mm 2 mps 661 mmHg 62%
    18:00 +25°C° 0 mm 2 mps 660 mmHg 66%
    19:00 +24°C° 0 mm 2 mps 660 mmHg 68%
    20:00 +21°C° 0 mm 2 mps 660 mmHg 70%
    21:00 +21°C° 0 mm 1 mps 660 mmHg 72%
    22:00 +21°C° 0 mm 1 mps 660 mmHg 67%
    23:00 +20°C° 0 mm 2 mps 660 mmHg 62%

    19 July, Thursday

    Time Temperature Precipitation Wind Pressure Humidity
    00:00 +20°C° 0 mm 2 mps 660 mmHg 57%
    01:00 +19°C° 0 mm 2 mps 660 mmHg 55%
    02:00 +19°C° 0 mm 2 mps 660 mmHg 52%
    03:00 +19°C° 0 mm 2 mps 659 mmHg 50%
    04:00 +20°C° 0 mm 2 mps 660 mmHg 50%
    05:00 +21°C° 0 mm 2 mps 660 mmHg 51%
    06:00 +23°C° 0 mm 2 mps 660 mmHg 52%
    07:00 +25°C° 0 mm 2 mps 660 mmHg 49%
    08:00 +27°C° 0 mm 2 mps 661 mmHg 46%
    09:00 +29°C° 0 mm 2 mps 661 mmHg 43%
    10:00 +29°C° 0 mm 2 mps 661 mmHg 43%
    11:00 +30°C° 0 mm 3 mps 661 mmHg 43%
    12:00 +31°C° 0 mm 3 mps 661 mmHg 42%
    13:00 +31°C° 0 mm 3 mps 661 mmHg 43%
    14:00 +31°C° 0 mm 3 mps 660 mmHg 44%
    15:00 +31°C° 0 mm 3 mps 660 mmHg 45%
    16:00 +30°C° 0 mm 2 mps 660 mmHg 49%
    17:00 +29°C° 0 mm 2 mps 660 mmHg 53%
    18:00 +28°C° 0 mm 1 mps 660 mmHg 57%
    19:00 +26°C° 0 mm 1 mps 660 mmHg 61%
    20:00 +25°C° 0 mm 1 mps 660 mmHg 64%
    21:00 +23°C° 0 mm 1 mps 660 mmHg 67%
    22:00 +23°C° 0 mm 2 mps 660 mmHg 64%
    23:00 +23°C° 0 mm 2 mps 660 mmHg 61%

    20 July, Friday

    Time Temperature Precipitation Wind Pressure Humidity
    00:00 +23°C° 0 mm 2 mps 660 mmHg 58%
    01:00 +21°C° 0 mm 2 mps 660 mmHg 56%
    02:00 +21°C° 0 mm 2 mps 660 mmHg 53%
    03:00 +21°C° 0 mm 2 mps 660 mmHg 51%
    04:00 +23°C° 0 mm 2 mps 660 mmHg 51%
    05:00 +24°C° 0 mm 2 mps 660 mmHg 52%
    06:00 +25°C° 0 mm 2 mps 660 mmHg 52%
    07:00 +26°C° 0 mm 2 mps 661 mmHg 49%
    08:00 +28°C° 0 mm 2 mps 661 mmHg 45%
    09:00 +30°C° 0 mm 3 mps 662 mmHg 42%
    10:00 +31°C° 0 mm 3 mps 661 mmHg 42%
    11:00 +33°C° 0 mm 3 mps 661 mmHg 41%
    12:00 +33°C° 0 mm 4 mps 661 mmHg 40%
    13:00 +33°C° 0 mm 4 mps 661 mmHg 42%
    14:00 +33°C° 0 mm 4 mps 661 mmHg 43%
    15:00 +31°C° 0 mm 3 mps 660 mmHg 45%
    16:00 +30°C° 0 mm 3 mps 660 mmHg 49%
    17:00 +29°C° 0 mm 2 mps 660 mmHg 53%
    18:00 +28°C° 0 mm 2 mps 660 mmHg 57%
    19:00 +27°C° 0 mm 2 mps 660 mmHg 61%
    20:00 +25°C° 0 mm 2 mps 660 mmHg 65%
    21:00 +24°C° 0 mm 2 mps 659 mmHg 68%
    22:00 +24°C° 0 mm 2 mps 659 mmHg 66%
    23:00 +23°C° 0 mm 2 mps 659 mmHg 64%

    21 July, Saturday

    Time Temperature Precipitation Wind Pressure Humidity
    00:00 +23°C° 0 mm 2 mps 659 mmHg 62%
    01:00 +23°C° 0 mm 2 mps 659 mmHg 60%
    02:00 +23°C° 0 mm 2 mps 659 mmHg 58%
    03:00 +22°C° 0 mm 3 mps 659 mmHg 57%
    04:00 +24°C° 0 mm 2 mps 659 mmHg 57%
    05:00 +25°C° 0 mm 2 mps 660 mmHg 58%
    06:00 +25°C° 0 mm 2 mps 660 mmHg 58%
    07:00 +27°C° 0 mm 3 mps 660 mmHg 54%
    08:00 +29°C° 0 mm 3 mps 661 mmHg 49%
    09:00 +30°C° 0 mm 4 mps 661 mmHg 45%
    10:00 +32°C° 0.2 mm 4 mps 661 mmHg 45%
    11:00 +32°C° 0.2 mm 5 mps 661 mmHg 44%
    12:00 +33°C° 0.2 mm 5 mps 661 mmHg 44%
    13:00 +32°C° 0.6 mm 5 mps 661 mmHg 45%
    14:00 +32°C° 0.6 mm 5 mps 661 mmHg 47%
    15:00 +32°C° 0.6 mm 5 mps 660 mmHg 48%
    16:00 +30°C° 0.4 mm 4 mps 660 mmHg 52%
    17:00 +28°C° 0.4 mm 4 mps 660 mmHg 56%
    18:00 +27°C° 0.4 mm 3 mps 660 mmHg 59%
    19:00 +26°C° 0.1 mm 3 mps 660 mmHg 64%
    20:00 +24°C° 0.1 mm 2 mps 660 mmHg 69%
    21:00 +23°C° 0.1 mm 2 mps 660 mmHg 74%
    22:00 +23°C° 0.2 mm 2 mps 660 mmHg 74%
    23:00 +21°C° 0.2 mm 2 mps 660 mmHg 74%
    Show more